Wind_Speed
33 32 32 32 31 31 31 32 33 33 34 34 35 35 35 35 35 36 36 36 37 39 39 39 40 42 43 44 45 45 45 45 46 46 47 47 46 45 45 46 46 46 46 45
33 32 32 32 31 30 31 31 32 33 33 33 34 34 34 34 34 35 36 36 37 37 38 38 39 40 41 42 43 43 43 44 45 45 46 46 46 46 45 45 46 46 46 46
34 33 33 32 30 30 30 30 31 32 32 33 33 34 34 34 34 35 36 37 37 38 38 38 38 39 40 41 41 41 41 42 42 43 44 44 45 46 45 45 45 46 47 47
34 33 33 32 31 30 30 30 30 31 31 32 32 33 33 34 34 35 36 36 37 37 38 38 38 38 38 39 40 40 39 39 40 41 42 43 44 45 45 45 45 46 46 46
34 33 32 31 31 30 29 29 29 29 30 32 32 32 32 33 34 35 35 36 36 37 37 37 38 38 38 38 38 38 39 39 39 40 41 41 43 44 45 45 45 45 46 46
32 32 32 31 30 30 29 29 29 30 31 31 31 30 30 31 32 33 34 35 36 36 37 38 38 38 38 38 38 38 39 39 39 39 39 40 41 42 43 43 43 44 44 44
30 30 30 30 30 29 29 29 29 29 29 29 29 29 28 29 30 32 32 33 35 35 36 37 38 38 38 38 39 39 39 39 38 38 38 39 39 40 40 41 41 42 42 42
29 28 28 28 28 28 28 28 29 28 28 28 28 28 28 27 28 29 30 31 32 33 35 36 37 37 38 39 39 40 40 39 39 38 38 38 38 39 39 39 39 39 40 40
27 26 26 26 27 27 27 27 28 28 27 28 28 28 28 28 27 27 28 29 30 31 32 34 36 37 37 38 39 40 40 40 40 40 39 39 40 39 39 38 37 37 38 38
26 25 26 26 27 27 27 28 28 27 27 27 27 27 27 27 27 27 27 28 29 29 30 31 32 34 35 36 37 38 39 40 40 41 41 40 39 39 38 37 36 36 35 35
27 27 27 27 27 27 27 27 27 27 27 26 26 26 25 25 25 26 26 27 27 28 28 29 30 32 33 34 35 36 36 37 37 38 38 38 38 38 37 36 35 35 34 34
27 27 27 27 27 27 27 27 26 26 26 26 25 25 24 24 24 25 25 25 26 26 26 27 28 30 32 33 33 34 34 34 34 35 35 36 36 36 36 35 35 34 33 33
27 27 27 27 27 26 26 25 25 25 25 25 26 25 25 24 23 24 25 25 25 25 25 26 27 28 30 31 31 32 32 32 32 33 33 33 33 34 34 35 34 34 34 33
27 27 26 26 26 26 26 25 25 25 26 26 26 25 25 25 24 24 24 25 25 25 25 25 25 26 28 29 29 29 30 30 31 31 31 31 32 32 33 33 34 34 33 33
27 26 26 26 26 26 26 25 25 25 25 25 25 24 24 25 24 24 24 25 24 23 23 24 25 25 27 28 28 29 29 30 30 30 31 31 31 32 32 32 33 33 32 32
26 26 26 26 26 26 25 26 26 25 24 24 23 23 23 23 23 24 24 24 23 23 23 23 24 25 26 26 27 28 28 29 29 30 30 31 31 32 32 32 32 32 32 31
25 25 25 25 25 25 25 25 24 24 23 23 22 22 22 21 21 21 21 22 22 22 23 23 23 24 25 25 26 27 28 29 29 29 29 30 30 31 32 32 31 31 31 31
24 24 24 24 23 23 24 23 23 23 22 22 21 21 20 20 19 19 20 20 21 21 22 21 22 23 23 24 25 26 26 27 28 28 28 29 29 30 30 30 30 30 30 30
24 24 24 24 23 23 23 22 22 21 21 21 20 19 19 19 19 20 20 19 20 20 20 20 21 22 22 23 24 24 24 24 25 26 26 27 27 28 28 29 29 29 29 30
24 25 24 24 24 23 22 22 22 21 21 21 20 20 20 20 20 20 20 20 20 20 20 21 21 21 21 23 23 23 23 23 24 24 25 25 26 27 28 28 28 28 29 29
25 25 25 24 24 23 22 22 22 22 21 21 20 20 20 19 19 19 19 20 20 20 19 20 20 19 20 20 21 22 22 22 23 24 24 25 25 26 27 27 28 28 28 28
25 25 25 25 24 23 22 22 22 22 21 21 21 20 20 19 19 18 18 18 18 18 18 19 19 19 19 19 20 21 21 22 22 23 24 24 25 26 26 26 27 27 27 27
25 25 25 24 23 23 22 22 22 21 21 21 20 20 19 19 18 18 17 17 17 17 18 18 19 19 19 19 20 20 22 22 22 22 23 23 24 25 26 26 27 27 27 27
26 26 25 24 23 22 22 22 22 21 21 20 19 19 19 18 18 17 17 17 17 17 18 18 19 20 20 20 21 21 21 22 22 23 23 24 24 25 25 26 26 27 27 27
25 25 24 23 23 22 22 22 21 21 20 20 19 19 18 18 18 18 18 17 17 17 17 18 19 19 20 21 21 22 22 22 23 23 23 24 24 24 24 25 26 27 27 27
25 24 24 23 22 22 21 21 20 20 20 19 19 19 18 18 18 18 18 18 17 17 17 18 18 19 20 21 21 22 22 22 23 23 23 22 22 23 24 24 24 25 26 26
25 24 23 22 21 21 20 20 19 19 19 19 19 19 19 18 18 18 18 18 18 18 18 18 19 19 20 20 20 21 22 22 22 22 22 22 23 23 23 24 24 24 25 25
Wind_Direction
298 295 293 289 288 286 284 282 280 278 276 275 273 270 267 264 262 260 257 255 252 250 248 247 247 246 246 246 246 248 248 248 249 249 249 249 250 252 252 253 253 254 256 257
298 296 293 290 288 287 285 282 280 279 277 275 273 271 268 266 262 260 257 255 253 252 250 249 248 247 247 247 246 247 248 249 248 249 250 250 250 251 252 253 254 254 255 257
298 296 294 291 289 286 284 283 281 279 278 276 274 272 269 267 263 259 257 255 253 252 251 250 249 247 247 247 247 247 247 247 247 247 249 250 250 251 252 252 253 254 256 257
299 297 293 293 291 287 285 283 282 279 278 277 275 273 271 269 264 260 257 255 254 252 252 251 249 247 247 247 247 247 247 246 246 248 249 250 250 250 251 252 254 255 256 256
301 298 295 292 292 290 286 284 282 280 278 277 275 273 271 269 265 262 259 257 256 253 252 251 248 248 248 247 248 247 246 247 247 248 249 250 250 250 252 253 254 255 256 256
301 298 296 295 293 291 289 285 283 282 281 279 276 273 271 269 267 265 261 257 256 254 253 251 249 248 247 247 247 246 246 246 247 247 249 250 250 251 252 253 255 256 257 257
301 298 296 296 294 292 290 288 286 285 283 280 277 275 273 270 268 266 263 260 256 255 253 252 250 248 247 246 246 245 245 246 247 248 249 250 250 252 253 255 257 257 257 257
303 301 300 299 296 293 291 289 288 286 284 281 278 275 272 271 269 268 266 262 259 257 254 252 249 248 247 247 247 246 246 247 248 250 251 252 252 253 255 257 257 257 257 257
303 303 301 299 297 295 294 292 290 288 285 282 280 277 274 272 271 270 268 265 262 260 257 254 251 249 248 248 248 247 247 248 249 251 252 252 253 254 256 257 256 256 257 257
302 301 299 299 297 297 296 295 293 290 288 285 283 281 279 276 273 271 268 266 262 260 258 256 253 250 248 248 248 248 248 249 250 251 252 253 254 254 254 254 254 255 256 257
301 301 300 299 297 296 297 297 295 292 290 288 286 284 283 279 275 273 270 267 264 261 259 257 254 251 249 248 248 248 249 250 250 251 251 252 253 253 253 252 252 253 254 255
301 300 300 300 298 297 296 296 295 294 292 290 288 286 284 281 277 273 271 268 265 263 260 256 253 251 249 249 248 248 249 249 250 250 250 250 251 252 252 251 251 252 253 254
301 301 301 301 301 299 298 298 296 294 293 291 289 287 284 281 278 274 271 268 266 263 259 256 254 251 249 247 247 249 249 249 250 250 249 249 249 250 250 250 250 251 252 253
301 301 301 302 302 301 299 298 297 297 297 294 290 288 284 280 277 275 272 269 267 264 260 256 252 250 248 247 247 248 249 249 249 250 249 248 247 247 248 249 250 250 250 251
303 303 303 303 303 301 299 298 298 298 298 297 293 289 285 280 277 275 273 270 267 265 261 258 253 250 249 248 248 249 249 249 248 248 248 248 248 248 247 247 247 247 248 249
305 305 305 305 304 303 300 299 298 297 297 296 294 291 287 283 279 276 273 270 266 264 262 260 256 252 250 250 249 248 248 248 247 246 247 248 248 247 247 246 246 245 246 247
307 307 306 305 304 303 302 302 300 299 297 295 294 291 288 284 281 278 275 273 268 265 263 261 258 253 252 251 249 248 247 247 247 246 246 247 248 247 246 245 245 245 245 245
310 310 310 308 307 306 306 305 303 302 302 299 295 291 288 285 280 279 278 274 270 267 265 263 259 255 252 251 250 249 248 248 248 247 247 247 247 246 245 245 244 244 244 243
313 312 312 310 309 308 308 306 304 304 305 303 299 294 289 286 281 278 278 277 272 267 264 263 260 257 254 253 251 249 247 247 248 247 247 247 246 245 244 243 242 243 244 244
313 313 312 310 309 308 308 306 304 304 305 305 302 298 293 289 284 280 277 275 272 268 264 261 260 258 255 253 250 248 247 248 248 248 247 247 246 244 243 241 241 242 243 243
313 312 312 310 308 307 307 307 305 303 303 303 302 299 296 292 287 282 279 278 274 269 265 260 259 258 255 252 249 247 247 248 249 249 248 247 247 245 243 242 242 241 242 242
314 313 311 310 308 306 306 306 306 304 302 302 302 300 297 294 290 286 283 280 275 270 265 261 259 258 256 253 251 250 248 249 250 249 249 248 247 245 243 242 242 242 242 242
313 312 311 310 308 307 306 305 305 305 303 302 300 299 297 294 291 288 286 283 278 271 266 263 260 258 258 256 253 250 249 248 249 249 249 248 247 245 243 242 242 242 242 243
313 312 311 309 307 307 306 305 304 304 305 304 302 298 295 293 291 290 287 284 281 274 268 264 260 258 256 255 254 252 251 250 250 249 249 249 248 246 245 243 242 242 243 244
315 314 312 310 309 308 306 305 304 304 305 306 304 301 296 293 291 290 289 285 280 275 270 266 263 261 258 256 254 253 252 251 250 250 249 249 247 245 245 244 243 243 243 244
316 315 314 312 309 307 306 305 304 304 305 305 305 304 300 297 294 291 289 287 283 276 270 267 266 263 261 258 256 255 254 253 252 250 249 248 246 245 245 244 244 244 243 244
316 316 314 313 311 310 308 306 305 304 304 305 305 304 303 300 298 295 291 287 284 279 273 269 266 264 262 260 258 256 255 253 251 249 247 246 246 246 245 244 244 244 244 245
Height
5578 5575 5571 5568 5566 5563 5561 5558 5556 5554 5552 5551 5549 5548 5548 5548 5548 5548 5549 5550 5552 5553 5555 5557 5559 5562 5564 5567 5569 5572 5574 5577 5580 5584 5587 5590 5593 5595 5598 5601 5604 5606 5608 5610
5570 5566 5562 5559 5557 5554 5551 5548 5546 5544 5542 5541 5539 5538 5537 5537 5537 5538 5538 5540 5541 5542 5544 5546 5548 5551 5553 5555 5558 5560 5563 5566 5569 5572 5575 5578 5581 5583 5586 5588 5591 5593 5596 5598
5560 5556 5552 5550 5548 5544 5541 5539 5537 5534 5533 5530 5529 5528 5527 5526 5527 5527 5528 5529 5530 5532 5533 5535 5537 5540 5542 5545 5547 5549 5551 5554 5557 5560 5563 5566 5568 5571 5573 5576 5578 5581 5583 5585
5550 5547 5543 5543 5537 5534 5532 5529 5527 5524 5522 5520 5519 5518 5517 5516 5516 5516 5517 5518 5519 5521 5523 5525 5527 5529 5532 5534 5536 5538 5541 5543 5546 5549 5551 5554 5556 5559 5561 5564 5566 5568 5570 5572
5540 5536 5533 5531 5528 5525 5522 5520 5517 5515 5513 5511 5509 5508 5507 5506 5505 5505 5506 5507 5508 5510 5512 5514 5516 5518 5521 5523 5526 5528 5531 5533 5535 5538 5540 5543 5545 5547 5549 5552 5554 5555 5557 5559
5530 5526 5524 5523 5519 5515 5514 5511 5509 5505 5503 5501 5499 5499 5498 5496 5495 5495 5495 5496 5497 5499 5501 5503 5505 5507 5510 5512 5515 5518 5520 5523 5525 5527 5530 5532 5534 5536 5538 5540 5541 5543 5545 5546
5522 5518 5515 5513 5509 5507 5506 5503 5499 5496 5494 5492 5490 5489 5488 5486 5485 5485 5485 5485 5486 5488 5489 5491 5493 5496 5499 5502 5504 5507 5510 5512 5515 5517 5519 5521 5523 5525 5526 5528 5530 5531 5533 5534
5514 5511 5510 5504 5501 5499 5496 5492 5489 5487 5485 5483 5481 5480 5478 5477 5476 5476 5475 5476 5476 5477 5479 5480 5482 5484 5487 5490 5493 5496 5499 5502 5504 5506 5508 5510 5512 5514 5515 5517 5518 5520 5521 5522
5507 5505 5500 5496 5492 5490 5486 5484 5481 5479 5477 5474 5472 5471 5470 5469 5468 5467 5467 5467 5467 5467 5468 5469 5471 5473 5476 5479 5481 5484 5487 5490 5493 5495 5497 5499 5501 5503 5504 5506 5508 5509 5510 5512
5499 5496 5493 5489 5485 5482 5479 5476 5473 5470 5468 5466 5464 5462 5461 5460 5459 5458 5457 5457 5457 5457 5458 5459 5461 5462 5465 5468 5470 5473 5476 5478 5481 5484 5486 5488 5490 5492 5494 5495 5497 5498 5500 5501
5492 5489 5485 5482 5478 5475 5471 5468 5465 5462 5459 5457 5455 5454 5452 5451 5450 5449 5448 5448 5448 5448 5449 5450 5451 5452 5455 5457 5459 5462 5464 5467 5470 5472 5474 5477 5479 5481 5483 5485 5486 5488 5490 5491
5485 5481 5478 5474 5470 5467 5464 5460 5457 5455 5452 5449 5447 5446 5444 5443 5442 5441 5440 5439 5439 5439 5439 5440 5441 5443 5445 5447 5449 5452 5454 5457 5459 5461 5464 5466 5468 5470 5472 5475 5476 5478 5480 5482
5477 5473 5469 5466 5462 5459 5456 5453 5450 5447 5444 5442 5439 5437 5436 5435 5433 5432 5432 5431 5430 5430 5431 5431 5432 5434 5435 5437 5439 5442 5444 5447 5449 5451 5453 5455 5458 5460 5462 5465 5467 5469 5470 5472
5468 5465 5461 5458 5455 5451 5448 5445 5442 5439 5436 5434 5431 5429 5428 5426 5425 5424 5423 5423 5422 5422 5422 5423 5424 5425 5427 5428 5430 5432 5435 5437 5439 5441 5443 5445 5447 5450 5452 5454 5457 5459 5461 5462
5461 5457 5454 5450 5447 5443 5440 5437 5434 5431 5429 5426 5423 5421 5419 5418 5417 5416 5415 5414 5414 5414 5414 5415 5416 5417 5418 5420 5422 5423 5425 5427 5429 5431 5434 5436 5438 5440 5442 5444 5446 5449 5451 5453
5453 5449 5446 5443 5439 5436 5432 5429 5426 5424 5421 5418 5416 5413 5411 5410 5408 5408 5407 5406 5406 5406 5406 5407 5407 5408 5410 5411 5413 5414 5416 5418 5420 5422 5424 5426 5428 5430 5432 5434 5436 5439 5441 5443
5446 5442 5439 5435 5432 5428 5425 5422 5419 5416 5413 5411 5408 5406 5404 5402 5401 5400 5399 5398 5398 5398 5399 5399 5399 5400 5402 5403 5404 5406 5407 5409 5411 5413 5415 5417 5419 5420 5422 5425 5427 5429 5432 5434
5438 5435 5432 5428 5425 5422 5418 5415 5412 5409 5406 5403 5401 5399 5397 5396 5394 5393 5392 5391 5391 5391 5391 5391 5392 5392 5393 5395 5396 5397 5398 5400 5402 5403 5405 5407 5409 5411 5413 5415 5418 5420 5422 5425
5432 5429 5425 5422 5418 5415 5412 5409 5406 5403 5400 5397 5394 5392 5391 5389 5388 5386 5385 5384 5384 5384 5384 5384 5384 5385 5386 5387 5388 5389 5390 5392 5393 5395 5396 5398 5400 5402 5404 5406 5409 5411 5413 5416
5426 5422 5419 5415 5412 5409 5406 5402 5399 5397 5394 5391 5388 5386 5384 5382 5381 5379 5378 5378 5377 5377 5377 5377 5377 5378 5378 5379 5380 5382 5383 5384 5386 5387 5388 5390 5392 5394 5396 5398 5400 5402 5405 5407
5419 5416 5412 5409 5405 5402 5399 5396 5393 5390 5388 5385 5382 5380 5378 5376 5374 5373 5371 5371 5370 5369 5369 5370 5370 5371 5371 5372 5373 5374 5376 5377 5378 5379 5381 5382 5384 5386 5388 5390 5392 5394 5396 5398
5413 5409 5406 5402 5399 5396 5393 5390 5387 5384 5381 5379 5376 5373 5371 5369 5368 5366 5365 5364 5363 5362 5362 5363 5363 5364 5365 5365 5366 5367 5369 5370 5371 5372 5373 5375 5376 5378 5379 5382 5384 5386 5388 5390
5406 5403 5399 5396 5392 5389 5386 5383 5381 5378 5375 5372 5370 5367 5365 5363 5361 5360 5359 5357 5356 5356 5356 5356 5357 5357 5358 5359 5360 5361 5362 5363 5364 5365 5366 5367 5369 5370 5372 5374 5376 5378 5380 5382
5399 5396 5392 5389 5386 5383 5380 5377 5374 5371 5369 5366 5363 5361 5359 5357 5356 5354 5353 5351 5350 5350 5350 5350 5350 5351 5351 5352 5353 5354 5355 5356 5357 5358 5359 5360 5361 5362 5364 5366 5368 5369 5371 5373
5393 5389 5386 5382 5379 5376 5373 5370 5368 5365 5362 5360 5357 5355 5353 5351 5350 5348 5347 5345 5344 5344 5343 5343 5343 5344 5344 5345 5346 5347 5347 5348 5349 5350 5352 5353 5354 5355 5356 5358 5360 5361 5363 5365
5386 5383 5379 5376 5373 5370 5367 5364 5362 5359 5357 5354 5352 5349 5347 5345 5343 5342 5340 5339 5338 5337 5337 5337 5337 5337 5337 5338 5338 5339 5340 5341 5342 5343 5344 5345 5346 5348 5349 5350 5352 5353 5355 5357
5380 5376 5373 5370 5366 5364 5361 5358 5356 5353 5351 5348 5346 5344 5341 5339 5337 5335 5334 5333 5332 5331 5330 5330 5330 5330 5330 5331 5331 5332 5332 5333 5334 5335 5337 5338 5339 5340 5341 5343 5344 5345 5347 5349